Terug naar catalogus

STARLINK-2370

ActiefCommunicatieVLEO
NORAD 47910·PAYLOAD·🇺🇸 United States

Gelanceerd Mar 14, 2021 vanaf Cape Canaveral Space Force Station

Loading…

Volgende Passages (komende 24 uur)

TLE

VersSource: CelesTrak SupGP

Epoch: Sep 15, 2026, 02:08 UTC

1 47910C 21021BC  26258.08937500  .00015687  00000+0  50508-3 0  2587
2 47910  53.1575 106.7031 0001377  85.3365 101.2478 15.31654375    19

Volg STARLINK-2370 in realtime met AllMySat

Download on the App Store